User: anonymous
Location: Caltech
(34.1382°N, 118.1253°W)
Time: 16:36:16
(UTC-07:00)
Language:

BREEZE M DEB (TANK) - Orbit

View from above orbital plane
View from above orbital plane
View from above satellite
View from above satellite

Ground track
Ground track

The orbit data is extracted from the following two-line orbital elements,

1 33437U 08057B   14234.73903681  .00001520  00000-0  47083-3 0   771
2 33437 049.5799 043.4059 5007409 050.1319 012.9763 05.55836696116340
Epoch (UTC): 22 August 2014 17:44:12
Eccentricity: 0.5007409
inclination: 49.5799°
perigee height: 343 km
apogee height: 13824 km
right ascension of ascending node: 43.4059°
argument of perigee: 50.1319°
revolutions per day: 5.55836696
mean anomaly at epoch: 12.9763°
orbit number at epoch: 11634

The dashed part of the orbit path shows where the satellite is in the earth's shadow,  

DLR